Time,TemperatureF,DewpointF,PressureIn,WindDirection,WindDirectionDegrees,WindSpeedMPH,WindSpeedGustMPH,Humidity,HourlyPrecipIn,Conditions,Clouds,dailyrainin,SolarRadiationWatts/m^2,SoftwareType,DateUTC
2013-04-24 00:05:00,37.5,32.2,29.92,NW,323,7.0,10.0,81,0.00,,,0.00,0,Wunderground v.1.15,2013-04-24 05:05:00,
2013-04-24 00:11:00,37.4,32.0,29.93,NW,325,6.0,11.0,81,0.00,,,0.00,0,weatherlink.com 1.10,2013-04-24 05:11:00,
2013-04-24 00:17:00,37.3,32.0,29.92,NNW,337,7.0,10.0,81,0.00,,,0.00,0,Wunderground v.1.15,2013-04-24 05:17:00,
2013-04-24 00:24:00,37.2,31.6,29.92,NNW,340,7.0,13.0,80,0.00,,,0.00,0,Wunderground v.1.15,2013-04-24 05:24:00,
2013-04-24 00:29:00,37.2,31.6,29.92,NNW,330,7.0,13.0,80,0.00,,,0.00,0,Wunderground v.1.15,2013-04-24 05:29:00,
2013-04-24 00:35:00,37.1,31.5,29.92,NNW,336,7.0,10.0,80,0.00,,,0.00,0,Wunderground v.1.15,2013-04-24 05:35:00,
2013-04-24 00:41:00,37.1,31.0,29.93,NW,320,7.0,14.0,80,0.00,,,0.00,0,weatherlink.com 1.10,2013-04-24 05:41:00,
2013-04-24 00:47:00,37.0,31.4,29.93,NNW,337,7.0,9.0,80,0.00,,,0.00,0,Wunderground v.1.15,2013-04-24 05:47:00,
2013-04-24 00:54:00,36.9,31.0,29.93,NNW,333,7.0,8.0,79,0.00,,,0.00,0,Wunderground v.1.15,2013-04-24 05:54:00,
2013-04-24 00:59:00,36.9,31.0,29.94,NNW,338,6.0,10.0,79,0.00,,,0.00,0,Wunderground v.1.15,2013-04-24 05:59:00,
2013-04-24 01:04:00,36.9,31.3,29.94,NW,315,6.0,7.0,80,0.00,,,0.00,0,Wunderground v.1.15,2013-04-24 06:04:00,
2013-04-24 01:10:00,36.8,31.2,29.93,North,351,5.0,7.0,80,0.00,,,0.00,0,Wunderground v.1.15,2013-04-24 06:10:00,
2013-04-24 01:16:00,36.8,31.2,29.94,NW,313,5.0,8.0,80,0.00,,,0.00,0,Wunderground v.1.15,2013-04-24 06:16:00,
2013-04-24 01:22:00,36.7,31.1,29.94,NW,323,5.0,5.0,80,0.00,,,0.00,0,Wunderground v.1.15,2013-04-24 06:22:00,
2013-04-24 01:27:00,36.6,31.3,29.94,NW,323,5.0,6.0,81,0.00,,,0.00,0,Wunderground v.1.15,2013-04-24 06:27:00,
2013-04-24 01:34:00,36.5,30.9,29.94,NW,324,5.0,8.0,80,0.00,,,0.00,0,Wunderground v.1.15,2013-04-24 06:34:00,
2013-04-24 01:39:00,36.4,31.1,29.94,NNW,335,4.0,8.0,81,0.00,,,0.00,0,Wunderground v.1.15,2013-04-24 06:39:00,
2013-04-24 01:44:00,36.4,31.1,29.94,NNW,331,5.0,7.0,81,0.00,,,0.00,0,Wunderground v.1.15,2013-04-24 06:44:00,
2013-04-24 01:50:00,36.3,31.0,29.93,NNW,337,6.0,6.0,81,0.00,,,0.00,0,Wunderground v.1.15,2013-04-24 06:50:00,
2013-04-24 01:56:00,36.2,30.9,29.94,NNW,339,6.0,9.0,81,0.00,,,0.00,0,Wunderground v.1.15,2013-04-24 06:56:00,
2013-04-24 02:02:00,36.2,30.9,29.93,NNW,333,6.0,7.0,81,0.00,,,0.00,0,Wunderground v.1.15,2013-04-24 07:02:00,
2013-04-24 02:07:00,36.1,30.8,29.93,NNW,336,5.0,8.0,81,0.00,,,0.00,0,Wunderground v.1.15,2013-04-24 07:07:00,
2013-04-24 02:14:00,36.1,30.8,29.93,NNW,333,5.0,8.0,81,0.00,,,0.00,0,Wunderground v.1.15,2013-04-24 07:14:00,
2013-04-24 02:19:00,36.0,30.4,29.93,NNW,327,5.0,8.0,80,0.00,,,0.00,0,Wunderground v.1.15,2013-04-24 07:19:00,
2013-04-24 02:25:00,36.0,30.4,29.93,NNW,334,6.0,6.0,80,0.00,,,0.00,0,Wunderground v.1.15,2013-04-24 07:25:00,
2013-04-24 02:30:00,35.9,30.6,29.93,NW,320,5.0,5.0,81,0.00,,,0.00,0,Wunderground v.1.15,2013-04-24 07:30:00,
2013-04-24 02:36:00,35.8,30.5,29.93,NNW,335,5.0,7.0,81,0.00,,,0.00,0,Wunderground v.1.15,2013-04-24 07:36:00,
2013-04-24 02:42:00,35.7,30.4,29.92,NNW,330,5.0,9.0,81,0.00,,,0.00,0,Wunderground v.1.15,2013-04-24 07:42:00,
2013-04-24 02:49:00,35.6,30.3,29.92,NNW,331,5.0,9.0,81,0.00,,,0.00,0,Wunderground v.1.15,2013-04-24 07:49:00,
2013-04-24 02:54:00,35.5,30.2,29.93,NW,322,5.0,5.0,81,0.00,,,0.00,0,Wunderground v.1.15,2013-04-24 07:54:00,
2013-04-24 02:59:00,35.5,30.2,29.92,NNW,342,5.0,6.0,81,0.00,,,0.00,0,Wunderground v.1.15,2013-04-24 07:59:00,
2013-04-24 03:05:00,35.5,30.5,29.91,NNW,338,5.0,6.0,82,0.00,,,0.00,0,Wunderground v.1.15,2013-04-24 08:05:00,
2013-04-24 03:11:00,35.3,30.4,29.91,NW,326,5.0,5.0,82,0.00,,,0.00,0,Wunderground v.1.15,2013-04-24 08:11:00,
2013-04-24 03:17:00,35.3,30.4,29.91,NW,325,5.0,5.0,82,0.00,,,0.00,0,Wunderground v.1.15,2013-04-24 08:17:00,
2013-04-24 03:22:00,35.1,30.2,29.91,NNW,327,5.0,6.0,82,0.00,,,0.00,0,Wunderground v.1.15,2013-04-24 08:22:00,
2013-04-24 03:29:00,34.9,30.0,29.92,NW,324,5.0,7.0,82,0.00,,,0.00,0,Wunderground v.1.15,2013-04-24 08:29:00,
2013-04-24 03:34:00,34.8,29.9,29.92,NNW,333,4.0,6.0,82,0.00,,,0.00,0,Wunderground v.1.15,2013-04-24 08:34:00,
2013-04-24 03:39:00,34.7,29.8,29.93,NNW,329,4.0,6.0,82,0.00,,,0.00,0,Wunderground v.1.15,2013-04-24 08:39:00,
2013-04-24 03:45:00,34.7,30.0,29.93,NW,325,2.0,7.0,82,0.00,,,0.00,0,weatherlink.com 1.10,2013-04-24 08:45:00,
2013-04-24 03:50:00,34.7,29.8,29.92,NW,323,4.0,4.0,82,0.00,,,0.00,0,Wunderground v.1.15,2013-04-24 08:50:00,
2013-04-24 03:56:00,34.6,29.7,29.92,NW,322,4.0,5.0,82,0.00,,,0.00,0,Wunderground v.1.15,2013-04-24 08:56:00,
2013-04-24 04:01:00,34.5,30.0,29.93,NNW,332,2.0,5.0,82,0.00,,,0.00,0,weatherlink.com 1.10,2013-04-24 09:01:00,
2013-04-24 04:07:00,34.4,29.5,29.92,NW,323,3.0,5.0,82,0.00,,,0.00,0,Wunderground v.1.15,2013-04-24 09:07:00,
2013-04-24 04:14:00,34.4,29.5,29.93,NW,321,4.0,4.0,82,0.00,,,0.00,0,Wunderground v.1.15,2013-04-24 09:14:00,
2013-04-24 04:19:00,34.4,29.5,29.93,NW,322,3.0,5.0,82,0.00,,,0.00,0,Wunderground v.1.15,2013-04-24 09:19:00,
2013-04-24 04:24:00,34.3,29.4,29.93,NW,322,2.0,4.0,82,0.00,,,0.00,0,Wunderground v.1.15,2013-04-24 09:24:00,
2013-04-24 04:29:00,34.2,29.3,29.93,NW,318,3.0,5.0,82,0.00,,,0.00,0,Wunderground v.1.15,2013-04-24 09:29:00,
2013-04-24 04:34:00,34.2,29.3,29.93,NNW,341,3.0,3.0,82,0.00,,,0.00,0,Wunderground v.1.15,2013-04-24 09:34:00,
2013-04-24 04:39:00,34.1,29.2,29.93,NNW,342,2.0,3.0,82,0.00,,,0.00,0,Wunderground v.1.15,2013-04-24 09:39:00,
2013-04-24 04:45:00,33.9,29.0,29.94,NNW,341,1.0,3.0,82,0.00,,,0.00,0,Wunderground v.1.15,2013-04-24 09:45:00,
2013-04-24 04:50:00,33.9,29.0,29.94,NNW,341,2.0,3.0,82,0.00,,,0.00,0,Wunderground v.1.15,2013-04-24 09:50:00,
2013-04-24 04:56:00,33.8,28.9,29.95,NNW,341,2.0,3.0,82,0.00,,,0.00,0,Wunderground v.1.15,2013-04-24 09:56:00,
2013-04-24 05:02:00,33.8,28.9,29.95,NNW,341,1.0,2.0,82,0.00,,,0.00,0,Wunderground v.1.15,2013-04-24 10:02:00,
2013-04-24 05:07:00,33.7,28.8,29.95,NW,326,1.0,3.0,82,0.00,,,0.00,0,Wunderground v.1.15,2013-04-24 10:07:00,
2013-04-24 05:12:00,33.6,29.0,29.95,NW,326,2.0,2.0,83,0.00,,,0.00,0,Wunderground v.1.15,2013-04-24 10:12:00,
2013-04-24 05:18:00,33.5,29.0,29.94,NW,323,1.0,6.0,83,0.00,,,0.00,0,weatherlink.com 1.10,2013-04-24 10:18:00,
2013-04-24 05:24:00,33.5,28.9,29.94,NW,323,2.0,3.0,83,0.00,,,0.00,0,Wunderground v.1.15,2013-04-24 10:24:00,
2013-04-24 05:29:00,33.4,28.8,29.95,NW,323,2.0,3.0,83,0.00,,,0.00,0,Wunderground v.1.15,2013-04-24 10:29:00,
2013-04-24 05:34:00,33.4,28.8,29.95,NW,324,1.0,2.0,83,0.00,,,0.00,0,Wunderground v.1.15,2013-04-24 10:34:00,
2013-04-24 05:39:00,33.3,28.7,29.95,NW,323,1.0,2.0,83,0.00,,,0.00,0,Wunderground v.1.15,2013-04-24 10:39:00,
2013-04-24 05:45:00,33.2,28.6,29.95,NW,324,2.0,3.0,83,0.00,,,0.00,0,Wunderground v.1.15,2013-04-24 10:45:00,
2013-04-24 05:51:00,33.1,28.5,29.95,NW,321,2.0,3.0,83,0.00,,,0.00,0,Wunderground v.1.15,2013-04-24 10:51:00,
2013-04-24 05:56:00,33.1,28.5,29.95,NW,321,3.0,3.0,83,0.00,,,0.00,0,Wunderground v.1.15,2013-04-24 10:56:00,
2013-04-24 06:02:00,32.9,28.3,29.95,NW,320,3.0,4.0,83,0.00,,,0.00,0,Wunderground v.1.15,2013-04-24 11:02:00,
2013-04-24 06:09:00,32.8,28.2,29.95,NW,321,3.0,4.0,83,0.00,,,0.00,7,Wunderground v.1.15,2013-04-24 11:09:00,
2013-04-24 06:14:00,32.8,28.2,29.95,NNW,343,3.0,4.0,83,0.00,,,0.00,11,Wunderground v.1.15,2013-04-24 11:14:00,
2013-04-24 06:19:00,32.8,28.2,29.96,NNW,329,3.0,4.0,83,0.00,,,0.00,18,Wunderground v.1.15,2013-04-24 11:19:00,
2013-04-24 06:24:00,32.8,27.9,29.96,NNW,329,2.0,3.0,82,0.00,,,0.00,23,Wunderground v.1.15,2013-04-24 11:24:00,
2013-04-24 06:30:00,32.8,27.9,29.97,NNW,329,1.0,1.0,82,0.00,,,0.00,33,Wunderground v.1.15,2013-04-24 11:30:00,
2013-04-24 06:35:00,32.8,28.0,29.97,NNW,329,0.0,3.0,82,0.00,,,0.00,42,weatherlink.com 1.10,2013-04-24 11:35:00,
2013-04-24 06:40:00,32.7,28.1,29.97,NNW,329,1.0,2.0,83,0.00,,,0.00,37,Wunderground v.1.15,2013-04-24 11:40:00,
2013-04-24 06:46:00,32.8,28.2,29.97,NNW,329,1.0,3.0,83,0.00,,,0.00,37,Wunderground v.1.15,2013-04-24 11:46:00,
2013-04-24 06:51:00,32.8,28.2,29.97,NNW,329,2.0,2.0,83,0.00,,,0.00,44,Wunderground v.1.15,2013-04-24 11:51:00,
2013-04-24 06:56:00,32.9,28.0,29.96,NNW,329,2.0,3.0,82,0.00,,,0.00,60,Wunderground v.1.15,2013-04-24 11:56:00,
2013-04-24 07:02:00,33.0,28.1,29.97,NNW,329,2.0,2.0,82,0.00,,,0.00,74,Wunderground v.1.15,2013-04-24 12:02:00,
2013-04-24 07:07:00,33.2,28.3,29.97,NNW,329,1.0,2.0,82,0.00,,,0.00,72,Wunderground v.1.15,2013-04-24 12:07:00,
2013-04-24 07:14:00,33.3,28.4,29.98,West,272,1.0,2.0,82,0.00,,,0.00,97,Wunderground v.1.15,2013-04-24 12:14:00,
2013-04-24 07:19:00,33.5,28.6,29.98,West,273,1.0,3.0,82,0.00,,,0.00,109,Wunderground v.1.15,2013-04-24 12:19:00,
2013-04-24 07:24:00,33.7,28.5,29.98,WNW,287,3.0,5.0,81,0.00,,,0.00,98,Wunderground v.1.15,2013-04-24 12:24:00,
2013-04-24 07:29:00,33.8,28.3,29.98,WNW,298,3.0,5.0,80,0.00,,,0.00,102,Wunderground v.1.15,2013-04-24 12:29:00,
2013-04-24 07:35:00,34.0,28.0,29.98,NW,309,1.0,7.0,79,0.00,,,0.00,105,weatherlink.com 1.10,2013-04-24 12:35:00,
2013-04-24 07:40:00,34.1,28.6,29.98,NW,311,4.0,4.0,80,0.00,,,0.00,127,Wunderground v.1.15,2013-04-24 12:40:00,
2013-04-24 07:45:00,34.4,28.9,29.98,WNW,303,3.0,5.0,80,0.00,,,0.00,141,Wunderground v.1.15,2013-04-24 12:45:00,
2013-04-24 07:51:00,34.4,29.0,29.98,WNW,298,4.0,7.0,79,0.00,,,0.00,160,weatherlink.com 1.10,2013-04-24 12:51:00,
2013-04-24 07:56:00,34.6,28.8,29.98,NW,311,4.0,5.0,79,0.00,,,0.00,178,Wunderground v.1.15,2013-04-24 12:56:00,
2013-04-24 08:01:00,34.8,29.0,29.99,WNW,302,4.0,5.0,79,0.00,,,0.00,195,Wunderground v.1.15,2013-04-24 13:01:00,
2013-04-24 08:07:00,35.2,29.0,29.99,NW,314,5.0,7.0,79,0.00,,,0.00,181,weatherlink.com 1.10,2013-04-24 13:07:00,
2013-04-24 08:14:00,35.2,28.7,29.99,WNW,298,4.0,6.0,77,0.00,,,0.00,185,Wunderground v.1.15,2013-04-24 13:14:00,
2013-04-24 08:19:00,35.4,29.2,29.99,WNW,289,4.0,6.0,78,0.00,,,0.00,200,Wunderground v.1.15,2013-04-24 13:19:00,
2013-04-24 08:24:00,35.5,29.0,29.98,NW,314,4.0,6.0,77,0.00,,,0.00,218,Wunderground v.1.15,2013-04-24 13:24:00,
2013-04-24 08:30:00,35.6,28.5,29.99,WNW,303,6.0,6.0,75,0.00,,,0.00,225,Wunderground v.1.15,2013-04-24 13:30:00,
2013-04-24 08:35:00,35.6,28.5,29.98,NW,313,7.0,7.0,75,0.00,,,0.00,204,Wunderground v.1.15,2013-04-24 13:35:00,
2013-04-24 08:41:00,35.7,28.6,29.98,NW,315,6.0,8.0,75,0.00,,,0.00,197,Wunderground v.1.15,2013-04-24 13:41:00,
2013-04-24 08:46:00,35.8,28.6,29.98,WNW,303,5.0,8.0,75,0.00,,,0.00,193,Wunderground v.1.15,2013-04-24 13:46:00,
2013-04-24 08:51:00,35.7,28.2,29.98,NW,326,6.0,6.0,74,0.00,,,0.00,183,Wunderground v.1.15,2013-04-24 13:51:00,
2013-04-24 08:57:00,35.8,28.6,29.98,NNW,329,5.0,6.0,75,0.00,,,0.00,178,Wunderground v.1.15,2013-04-24 13:57:00,
2013-04-24 09:04:00,36.0,28.8,29.98,NW,315,4.0,8.0,75,0.00,,,0.00,200,Wunderground v.1.15,2013-04-24 14:04:00,
2013-04-24 09:09:00,36.1,28.3,29.98,NNW,344,5.0,8.0,73,0.00,,,0.00,281,Wunderground v.1.15,2013-04-24 14:09:00,
2013-04-24 09:14:00,36.4,28.9,29.98,WNW,292,6.0,9.0,74,0.00,,,0.00,380,Wunderground v.1.15,2013-04-24 14:14:00,
2013-04-24 09:19:00,36.9,29.4,29.98,NW,311,5.0,9.0,74,0.00,,,0.00,443,Wunderground v.1.15,2013-04-24 14:19:00,
2013-04-24 09:25:00,37.3,29.4,29.98,NW,315,6.0,10.0,73,0.00,,,0.00,466,Wunderground v.1.15,2013-04-24 14:25:00,
2013-04-24 09:31:00,37.9,29.7,29.99,NW,305,7.0,9.0,72,0.00,,,0.00,698,Wunderground v.1.15,2013-04-24 14:31:00,
2013-04-24 09:36:00,38.4,29.5,29.99,WNW,291,7.0,9.0,70,0.00,,,0.00,388,Wunderground v.1.15,2013-04-24 14:36:00,
2013-04-24 09:42:00,38.3,28.3,29.99,NW,305,7.0,9.0,67,0.00,,,0.00,366,Wunderground v.1.15,2013-04-24 14:42:00,
2013-04-24 09:49:00,38.6,29.3,29.99,NW,315,6.0,9.0,69,0.00,,,0.00,682,Wunderground v.1.15,2013-04-24 14:49:00,
2013-04-24 09:54:00,39.1,29.1,30.00,NNW,330,6.0,9.0,67,0.00,,,0.00,578,Wunderground v.1.15,2013-04-24 14:54:00,
2013-04-24 09:59:00,39.4,29.7,29.99,NW,306,6.0,13.0,68,0.00,,,0.00,489,Wunderground v.1.15,2013-04-24 14:59:00,
2013-04-24 10:04:00,40.1,29.6,30.00,NW,322,5.0,8.0,66,0.00,,,0.00,679,Wunderground v.1.15,2013-04-24 15:04:00,
2013-04-24 10:10:00,40.7,29.8,30.00,WNW,299,6.0,10.0,65,0.00,,,0.00,731,Wunderground v.1.15,2013-04-24 15:10:00,
2013-04-24 10:15:00,41.0,28.6,30.00,NNW,333,7.0,10.0,61,0.00,,,0.00,302,Wunderground v.1.15,2013-04-24 15:15:00,
2013-04-24 10:20:00,40.8,28.8,30.00,NNW,344,7.0,8.0,62,0.00,,,0.00,875,Wunderground v.1.15,2013-04-24 15:20:00,
2013-04-24 10:26:00,40.8,27.6,30.00,WNW,288,8.0,11.0,59,0.00,,,0.00,274,Wunderground v.1.15,2013-04-24 15:26:00,
2013-04-24 10:32:00,40.6,29.0,30.00,WNW,303,7.0,8.0,63,0.00,,,0.00,773,Wunderground v.1.15,2013-04-24 15:32:00,
2013-04-24 10:37:00,41.1,27.9,30.00,NNW,329,6.0,9.0,59,0.00,,,0.00,262,Wunderground v.1.15,2013-04-24 15:37:00,
2013-04-24 10:44:00,41.3,28.0,30.00,NNW,345,6.0,8.0,59,0.00,,,0.00,710,Wunderground v.1.15,2013-04-24 15:44:00,
2013-04-24 10:49:00,42.0,29.9,30.00,WNW,283,6.0,11.0,62,0.00,,,0.00,673,Wunderground v.1.15,2013-04-24 15:49:00,
2013-04-24 10:55:00,42.2,28.0,30.00,NNW,334,6.0,15.0,58,0.00,,,0.00,283,weatherlink.com 1.10,2013-04-24 15:55:00,
2013-04-24 11:00:00,42.5,29.2,29.99,NW,325,7.0,7.0,59,0.00,,,0.00,837,Wunderground v.1.15,2013-04-24 16:00:00,
2013-04-24 11:05:00,42.5,27.9,29.99,North,355,7.0,11.0,56,0.00,,,0.00,390,Wunderground v.1.15,2013-04-24 16:05:00,
2013-04-24 11:11:00,42.4,27.0,29.99,NNW,341,7.0,12.0,55,0.00,,,0.00,431,weatherlink.com 1.10,2013-04-24 16:11:00,
2013-04-24 11:16:00,42.4,27.4,29.99,North,355,8.0,13.0,55,0.00,,,0.00,462,Wunderground v.1.15,2013-04-24 16:16:00,
2013-04-24 11:22:00,42.5,27.9,29.99,NNW,336,8.0,8.0,56,0.00,,,0.00,953,Wunderground v.1.15,2013-04-24 16:22:00,
2013-04-24 11:27:00,43.0,27.5,29.99,NNW,329,7.0,12.0,54,0.00,,,0.00,974,Wunderground v.1.15,2013-04-24 16:27:00,
2013-04-24 11:34:00,43.2,28.1,29.99,NW,308,7.0,10.0,55,0.00,,,0.00,944,Wunderground v.1.15,2013-04-24 16:34:00,
2013-04-24 11:39:00,43.4,28.7,29.99,NW,306,8.0,12.0,56,0.00,,,0.00,991,Wunderground v.1.15,2013-04-24 16:39:00,
2013-04-24 11:45:00,43.7,29.5,29.99,NW,311,8.0,12.0,57,0.00,,,0.00,1018,Wunderground v.1.15,2013-04-24 16:45:00,
2013-04-24 11:51:00,43.6,28.0,29.99,WNW,300,5.0,11.0,54,0.00,,,0.00,424,Wunderground v.1.15,2013-04-24 16:51:00,
2013-04-24 11:56:00,43.8,28.7,29.99,North,349,6.0,14.0,55,0.00,,,0.00,1071,Wunderground v.1.15,2013-04-24 16:56:00,
2013-04-24 12:02:00,43.8,27.3,29.99,WSW,257,8.0,8.0,52,0.00,,,0.00,1009,Wunderground v.1.15,2013-04-24 17:02:00,
2013-04-24 12:09:00,44.3,29.6,29.99,NNW,330,7.0,8.0,56,0.00,,,0.00,1035,Wunderground v.1.15,2013-04-24 17:09:00,
2013-04-24 12:14:00,45.1,30.3,29.98,WSW,242,5.0,13.0,56,0.00,,,0.00,1078,Wunderground v.1.15,2013-04-24 17:14:00,
2013-04-24 12:19:00,45.0,27.9,29.98,WNW,294,5.0,13.0,51,0.00,,,0.00,1113,Wunderground v.1.15,2013-04-24 17:19:00,
2013-04-24 12:25:00,45.0,28.4,29.98,NW,311,6.0,13.0,52,0.00,,,0.00,1067,Wunderground v.1.15,2013-04-24 17:25:00,
2013-04-24 12:30:00,45.4,31.0,29.98,West,280,7.0,9.0,57,0.00,,,0.00,1030,Wunderground v.1.15,2013-04-24 17:30:00,
2013-04-24 12:36:00,46.1,31.7,29.98,WNW,284,6.0,9.0,57,0.00,,,0.00,986,Wunderground v.1.15,2013-04-24 17:36:00,
2013-04-24 12:42:00,46.3,29.6,29.98,NNW,338,6.0,12.0,52,0.00,,,0.00,1013,Wunderground v.1.15,2013-04-24 17:42:00,
2013-04-24 12:49:00,45.8,29.6,29.98,West,277,7.0,12.0,53,0.00,,,0.00,981,Wunderground v.1.15,2013-04-24 17:49:00,
2013-04-24 12:54:00,46.1,29.4,29.98,WNW,297,6.0,7.0,52,0.00,,,0.00,974,Wunderground v.1.15,2013-04-24 17:54:00,
2013-04-24 12:59:00,46.4,29.2,29.98,West,265,4.0,7.0,51,0.00,,,0.00,970,Wunderground v.1.15,2013-04-24 17:59:00,
2013-04-24 13:05:00,47.0,29.8,29.97,NW,314,5.0,8.0,51,0.00,,,0.00,963,Wunderground v.1.15,2013-04-24 18:05:00,
2013-04-24 13:11:00,47.2,29.5,29.97,WNW,284,5.0,10.0,50,0.00,,,0.00,933,Wunderground v.1.15,2013-04-24 18:11:00,
2013-04-24 13:16:00,47.1,29.9,29.97,West,269,6.0,10.0,51,0.00,,,0.00,954,Wunderground v.1.15,2013-04-24 18:16:00,
2013-04-24 13:22:00,46.8,29.6,29.97,NW,304,7.0,9.0,51,0.00,,,0.00,947,Wunderground v.1.15,2013-04-24 18:22:00,
2013-04-24 13:29:00,47.0,29.8,29.97,WSW,253,7.0,9.0,51,0.00,,,0.00,1000,Wunderground v.1.15,2013-04-24 18:29:00,
2013-04-24 13:34:00,46.4,28.8,29.97,WNW,300,7.0,9.0,50,0.00,,,0.00,949,Wunderground v.1.15,2013-04-24 18:34:00,
2013-04-24 13:39:00,46.8,29.6,29.98,NNW,331,7.0,11.0,51,0.00,,,0.00,921,Wunderground v.1.15,2013-04-24 18:39:00,
2013-04-24 13:45:00,47.2,28.0,29.98,WNW,287,6.0,15.0,47,0.00,,,0.00,919,weatherlink.com 1.10,2013-04-24 18:45:00,
2013-04-24 13:50:00,47.4,28.7,29.97,West,261,7.0,8.0,48,0.00,,,0.00,932,Wunderground v.1.15,2013-04-24 18:50:00,
2013-04-24 13:56:00,47.5,27.7,29.97,West,273,7.0,15.0,46,0.00,,,0.00,916,Wunderground v.1.15,2013-04-24 18:56:00,
2013-04-24 14:01:00,47.7,28.9,29.98,WNW,303,7.0,7.0,48,0.00,,,0.00,909,Wunderground v.1.15,2013-04-24 19:01:00,
2013-04-24 14:07:00,48.0,29.2,29.97,West,265,5.0,7.0,48,0.00,,,0.00,895,Wunderground v.1.15,2013-04-24 19:07:00,
2013-04-24 14:14:00,48.8,31.0,29.98,West,263,6.0,11.0,50,0.00,,,0.00,891,Wunderground v.1.15,2013-04-24 19:14:00,
2013-04-24 14:19:00,48.7,27.7,29.98,NW,314,7.0,11.0,44,0.00,,,0.00,925,Wunderground v.1.15,2013-04-24 19:19:00,
2013-04-24 14:24:00,48.8,28.4,29.98,WSW,240,6.0,7.0,45,0.00,,,0.00,870,Wunderground v.1.15,2013-04-24 19:24:00,
2013-04-24 14:30:00,48.7,27.2,29.98,West,263,6.0,6.0,43,0.00,,,0.00,856,Wunderground v.1.15,2013-04-24 19:30:00,
2013-04-24 14:35:00,48.7,29.4,29.98,WSW,254,5.0,9.0,47,0.00,,,0.00,851,Wunderground v.1.15,2013-04-24 19:35:00,
2013-04-24 14:41:00,49.2,28.2,29.98,West,260,6.0,7.0,44,0.00,,,0.00,844,Wunderground v.1.15,2013-04-24 19:41:00,
2013-04-24 14:46:00,49.2,28.0,29.98,SSW,209,6.0,11.0,44,0.00,,,0.00,840,weatherlink.com 1.10,2013-04-24 19:46:00,
2013-04-24 14:52:00,49.9,29.9,29.98,WNW,297,6.0,8.0,46,0.00,,,0.00,824,Wunderground v.1.15,2013-04-24 19:52:00,
2013-04-24 14:57:00,49.7,28.6,29.97,WSW,240,7.0,8.0,44,0.00,,,0.00,816,Wunderground v.1.15,2013-04-24 19:57:00,
2013-04-24 15:04:00,49.8,27.6,29.97,NW,304,7.0,10.0,42,0.00,,,0.00,802,Wunderground v.1.15,2013-04-24 20:04:00,
2013-04-24 15:09:00,49.4,28.4,29.97,West,268,7.0,11.0,44,0.00,,,0.00,789,Wunderground v.1.15,2013-04-24 20:09:00,
2013-04-24 15:15:00,49.6,28.0,29.97,West,268,8.0,12.0,43,0.00,,,0.00,779,Wunderground v.1.15,2013-04-24 20:15:00,
2013-04-24 15:21:00,49.5,27.9,29.97,SW,225,7.0,9.0,43,0.00,,,0.00,777,Wunderground v.1.15,2013-04-24 20:21:00,
2013-04-24 15:27:00,49.9,27.7,29.97,West,261,6.0,9.0,42,0.00,,,0.00,772,Wunderground v.1.15,2013-04-24 20:27:00,
2013-04-24 15:33:00,50.3,27.0,29.97,NW,325,5.0,14.0,40,0.00,,,0.00,731,weatherlink.com 1.10,2013-04-24 20:33:00,
2013-04-24 15:39:00,50.7,29.0,29.97,West,259,6.0,12.0,43,0.00,,,0.00,747,Wunderground v.1.15,2013-04-24 20:39:00,
2013-04-24 15:44:00,51.2,29.4,29.97,WSW,238,6.0,12.0,43,0.00,,,0.00,724,Wunderground v.1.15,2013-04-24 20:44:00,
2013-04-24 15:49:00,50.8,28.5,29.97,West,267,8.0,15.0,42,0.00,,,0.00,700,Wunderground v.1.15,2013-04-24 20:49:00,
2013-04-24 15:55:00,51.0,28.1,29.96,WSW,252,7.0,8.0,41,0.00,,,0.00,691,Wunderground v.1.15,2013-04-24 20:55:00,
2013-04-24 16:01:00,51.3,28.4,29.97,NW,323,6.0,6.0,41,0.00,,,0.00,682,Wunderground v.1.15,2013-04-24 21:01:00,
2013-04-24 16:06:00,50.9,28.6,29.97,West,261,7.0,8.0,42,0.00,,,0.00,668,Wunderground v.1.15,2013-04-24 21:06:00,
2013-04-24 16:12:00,50.8,28.5,29.97,WNW,296,6.0,7.0,42,0.00,,,0.00,654,Wunderground v.1.15,2013-04-24 21:12:00,
2013-04-24 16:18:00,51.9,29.0,29.96,WNW,294,9.0,10.0,42,0.00,,,0.00,633,weatherlink.com 1.10,2013-04-24 21:18:00,
2013-04-24 16:24:00,52.3,28.7,29.97,West,269,5.0,11.0,40,0.00,,,0.00,626,Wunderground v.1.15,2013-04-24 21:24:00,
2013-04-24 16:29:00,50.9,26.8,29.97,West,262,6.0,11.0,39,0.00,,,0.00,190,Wunderground v.1.15,2013-04-24 21:29:00,
2013-04-24 16:35:00,50.5,28.2,29.96,WNW,287,6.0,9.0,42,0.00,,,0.00,654,Wunderground v.1.15,2013-04-24 21:35:00,
2013-04-24 16:41:00,51.0,28.1,29.97,WSW,249,5.0,7.0,41,0.00,,,0.00,605,Wunderground v.1.15,2013-04-24 21:41:00,
2013-04-24 16:47:00,50.6,28.9,29.96,West,279,7.0,12.0,43,0.00,,,0.00,207,Wunderground v.1.15,2013-04-24 21:47:00,
2013-04-24 16:54:00,50.7,26.6,29.96,West,280,6.0,12.0,39,0.00,,,0.00,554,Wunderground v.1.15,2013-04-24 21:54:00,
2013-04-24 16:59:00,51.1,29.4,29.96,WNW,299,7.0,12.0,43,0.00,,,0.00,512,Wunderground v.1.15,2013-04-24 21:59:00,
2013-04-24 17:05:00,51.4,29.1,29.96,West,259,7.0,9.0,42,0.00,,,0.00,499,Wunderground v.1.15,2013-04-24 22:05:00,
2013-04-24 17:10:00,51.3,28.4,29.96,WSW,245,7.0,7.0,41,0.00,,,0.00,497,Wunderground v.1.15,2013-04-24 22:10:00,
2013-04-24 17:16:00,50.9,26.8,29.96,West,279,7.0,10.0,39,0.00,,,0.00,471,Wunderground v.1.15,2013-04-24 22:16:00,
2013-04-24 17:21:00,51.1,28.0,29.96,WSW,246,5.0,11.0,41,0.00,,,0.00,450,weatherlink.com 1.10,2013-04-24 22:21:00,
2013-04-24 17:27:00,51.6,27.4,29.96,WSW,244,6.0,8.0,39,0.00,,,0.00,418,Wunderground v.1.15,2013-04-24 22:27:00,
2013-04-24 17:34:00,51.7,27.5,29.97,West,267,5.0,6.0,39,0.00,,,0.00,390,Wunderground v.1.15,2013-04-24 22:34:00,
2013-04-24 17:39:00,51.4,27.2,29.97,SW,227,6.0,8.0,39,0.00,,,0.00,383,Wunderground v.1.15,2013-04-24 22:39:00,
2013-04-24 17:44:00,51.4,27.9,29.96,WNW,299,6.0,11.0,40,0.00,,,0.00,357,Wunderground v.1.15,2013-04-24 22:44:00,
2013-04-24 17:49:00,51.3,27.2,29.97,West,264,6.0,11.0,39,0.00,,,0.00,338,Wunderground v.1.15,2013-04-24 22:49:00,
2013-04-24 17:55:00,51.5,27.9,29.96,WNW,303,5.0,6.0,40,0.00,,,0.00,325,Wunderground v.1.15,2013-04-24 22:55:00,
2013-04-24 18:01:00,51.5,27.3,29.96,WSW,252,5.0,9.0,39,0.00,,,0.00,292,Wunderground v.1.15,2013-04-24 23:01:00,
2013-04-24 18:07:00,50.7,26.0,29.96,WSW,250,3.0,14.0,39,0.00,,,0.00,251,weatherlink.com 1.10,2013-04-24 23:07:00,
2013-04-24 18:12:00,50.4,27.0,29.96,West,263,5.0,6.0,40,0.00,,,0.00,255,Wunderground v.1.15,2013-04-24 23:12:00,
2013-04-24 18:19:00,50.1,26.7,29.96,SW,226,5.0,10.0,40,0.00,,,0.00,144,Wunderground v.1.15,2013-04-24 23:19:00,
2013-04-24 18:24:00,49.9,27.1,29.96,West,277,6.0,8.0,41,0.00,,,0.00,167,Wunderground v.1.15,2013-04-24 23:24:00,
2013-04-24 18:29:00,50.0,27.2,29.96,WSW,252,6.0,9.0,41,0.00,,,0.00,185,Wunderground v.1.15,2013-04-24 23:29:00,
2013-04-24 18:34:00,50.1,26.7,29.96,SW,229,6.0,9.0,40,0.00,,,0.00,162,Wunderground v.1.15,2013-04-24 23:34:00,
2013-04-24 18:39:00,50.1,27.3,29.96,SW,233,5.0,9.0,41,0.00,,,0.00,128,Wunderground v.1.15,2013-04-24 23:39:00,
2013-04-24 18:45:00,49.8,27.0,29.96,WSW,240,4.0,6.0,41,0.00,,,0.00,46,Wunderground v.1.15,2013-04-24 23:45:00,
2013-04-24 18:51:00,49.3,27.7,29.96,WSW,254,5.0,6.0,43,0.00,,,0.00,42,Wunderground v.1.15,2013-04-24 23:51:00,
2013-04-24 18:57:00,49.1,26.4,29.96,SW,227,4.0,9.0,41,0.00,,,0.00,37,Wunderground v.1.15,2013-04-24 23:57:00,
2013-04-24 19:04:00,48.7,26.6,29.96,SW,224,4.0,7.0,42,0.00,,,0.00,33,Wunderground v.1.15,2013-04-25 00:04:00,
2013-04-24 19:09:00,48.6,26.5,29.96,WSW,248,4.0,8.0,42,0.00,,,0.00,30,Wunderground v.1.15,2013-04-25 00:09:00,
2013-04-24 19:14:00,48.5,26.4,29.97,SW,232,5.0,7.0,42,0.00,,,0.00,26,Wunderground v.1.15,2013-04-25 00:14:00,
2013-04-24 19:20:00,48.3,26.2,29.97,SW,225,4.0,4.0,42,0.00,,,0.00,21,Wunderground v.1.15,2013-04-25 00:20:00,
2013-04-24 19:26:00,48.0,26.5,29.97,SW,234,4.0,4.0,43,0.00,,,0.00,18,Wunderground v.1.15,2013-04-25 00:26:00,
2013-04-24 19:32:00,47.8,26.4,29.98,West,267,4.0,5.0,43,0.00,,,0.00,12,Wunderground v.1.15,2013-04-25 00:32:00,
2013-04-24 19:37:00,47.6,26.2,29.97,SW,234,4.0,5.0,43,0.00,,,0.00,9,Wunderground v.1.15,2013-04-25 00:37:00,
2013-04-24 19:44:00,47.3,26.5,29.97,SW,236,3.0,3.0,44,0.00,,,0.00,5,Wunderground v.1.15,2013-04-25 00:44:00,
2013-04-24 19:49:00,46.9,26.1,29.98,WSW,241,3.0,4.0,44,0.00,,,0.00,0,Wunderground v.1.15,2013-04-25 00:49:00,
2013-04-24 19:54:00,46.5,25.7,29.98,WSW,241,2.0,3.0,44,0.00,,,0.00,0,Wunderground v.1.15,2013-04-25 00:54:00,
2013-04-24 20:00:00,46.2,26.0,29.98,WSW,241,2.0,2.0,45,0.00,,,0.00,0,Wunderground v.1.15,2013-04-25 01:00:00,
2013-04-24 20:05:00,45.9,26.3,29.98,WSW,241,2.0,2.0,46,0.00,,,0.00,0,Wunderground v.1.15,2013-04-25 01:05:00,
2013-04-24 20:11:00,45.6,26.0,29.98,WSW,241,2.0,2.0,46,0.00,,,0.00,0,Wunderground v.1.15,2013-04-25 01:11:00,
2013-04-24 20:17:00,45.7,26.6,29.99,WSW,241,2.0,3.0,47,0.00,,,0.00,0,Wunderground v.1.15,2013-04-25 01:17:00,
2013-04-24 20:22:00,45.9,27.3,29.99,SSW,207,3.0,6.0,48,0.00,,,0.00,0,Wunderground v.1.15,2013-04-25 01:22:00,
2013-04-24 20:29:00,46.0,27.9,29.99,SW,219,4.0,6.0,49,0.00,,,0.00,0,Wunderground v.1.15,2013-04-25 01:29:00,
2013-04-24 20:34:00,45.8,27.7,29.99,SW,218,3.0,5.0,49,0.00,,,0.00,0,Wunderground v.1.15,2013-04-25 01:34:00,
2013-04-24 20:39:00,45.6,28.0,29.99,SW,215,3.0,5.0,50,0.00,,,0.00,0,Wunderground v.1.15,2013-04-25 01:39:00,
2013-04-24 20:45:00,45.4,28.3,29.99,SW,227,4.0,5.0,51,0.00,,,0.00,0,Wunderground v.1.15,2013-04-25 01:45:00,
2013-04-24 20:51:00,45.2,28.1,29.99,SW,223,3.0,3.0,51,0.00,,,0.00,0,Wunderground v.1.15,2013-04-25 01:51:00,
2013-04-24 20:56:00,45.0,28.4,29.99,SSW,211,4.0,4.0,52,0.00,,,0.00,0,Wunderground v.1.15,2013-04-25 01:56:00,
2013-04-24 21:02:00,44.8,28.2,30.00,SSW,211,3.0,3.0,52,0.00,,,0.00,0,Wunderground v.1.15,2013-04-25 02:02:00,
2013-04-24 21:09:00,44.6,28.5,30.00,SSW,212,3.0,4.0,53,0.00,,,0.00,0,Wunderground v.1.15,2013-04-25 02:09:00,
2013-04-24 21:14:00,44.5,28.4,30.00,SW,217,3.0,5.0,53,0.00,,,0.00,0,Wunderground v.1.15,2013-04-25 02:14:00,
2013-04-24 21:19:00,44.2,28.6,30.00,SW,217,3.0,5.0,54,0.00,,,0.00,0,Wunderground v.1.15,2013-04-25 02:19:00,
2013-04-24 21:24:00,43.9,28.8,30.01,SW,217,3.0,4.0,55,0.00,,,0.00,0,Wunderground v.1.15,2013-04-25 02:24:00,
2013-04-24 21:30:00,43.7,29.0,30.01,SW,220,4.0,4.0,56,0.00,,,0.00,0,Wunderground v.1.15,2013-04-25 02:30:00,
2013-04-24 21:35:00,43.9,29.2,30.01,SSW,207,4.0,7.0,56,0.00,,,0.00,0,Wunderground v.1.15,2013-04-25 02:35:00,
2013-04-24 21:41:00,44.0,29.3,30.01,SW,217,4.0,5.0,56,0.00,,,0.00,0,Wunderground v.1.15,2013-04-25 02:41:00,
2013-04-24 21:46:00,44.0,29.3,30.01,SW,221,5.0,6.0,56,0.00,,,0.00,0,Wunderground v.1.15,2013-04-25 02:46:00,
2013-04-24 21:52:00,43.9,29.2,30.00,SSW,210,5.0,5.0,56,0.00,,,0.00,0,Wunderground v.1.15,2013-04-25 02:52:00,
2013-04-24 21:59:00,43.8,29.1,30.00,SSW,211,4.0,5.0,56,0.00,,,0.00,0,Wunderground v.1.15,2013-04-25 02:59:00,
2013-04-24 22:04:00,43.6,29.4,30.00,SSW,205,4.0,4.0,57,0.00,,,0.00,0,Wunderground v.1.15,2013-04-25 03:04:00,
2013-04-24 22:09:00,43.3,29.5,30.00,SSW,196,4.0,5.0,58,0.00,,,0.00,0,Wunderground v.1.15,2013-04-25 03:09:00,
2013-04-24 22:14:00,43.2,29.4,30.00,SSW,211,4.0,5.0,58,0.00,,,0.00,0,Wunderground v.1.15,2013-04-25 03:14:00,
2013-04-24 22:20:00,42.9,29.0,30.00,SSW,210,5.0,7.0,58,0.00,,,0.00,0,weatherlink.com 1.10,2013-04-25 03:20:00,
2013-04-24 22:25:00,42.8,29.5,30.00,SW,223,4.0,5.0,59,0.00,,,0.00,0,Wunderground v.1.15,2013-04-25 03:25:00,
2013-04-24 22:31:00,42.9,29.1,30.00,SSW,213,5.0,6.0,58,0.00,,,0.00,0,Wunderground v.1.15,2013-04-25 03:31:00,
2013-04-24 22:37:00,42.9,29.1,29.99,SSW,195,5.0,6.0,58,0.00,,,0.00,0,Wunderground v.1.15,2013-04-25 03:37:00,
2013-04-24 22:44:00,43.2,29.4,29.99,SSW,205,5.0,8.0,58,0.00,,,0.00,0,Wunderground v.1.15,2013-04-25 03:44:00,
2013-04-24 22:49:00,43.4,29.2,29.99,SW,217,6.0,11.0,57,0.00,,,0.00,0,Wunderground v.1.15,2013-04-25 03:49:00,
2013-04-24 22:55:00,43.6,29.4,29.99,WSW,240,7.0,9.0,57,0.00,,,0.00,0,Wunderground v.1.15,2013-04-25 03:55:00,
2013-04-24 23:00:00,43.6,29.8,29.99,South,188,7.0,8.0,58,0.00,,,0.00,0,Wunderground v.1.15,2013-04-25 04:00:00,
2013-04-24 23:01:00,43.6,29.8,29.99,SSW,207,7.0,8.0,58,0.00,,,0.00,0,Wunderground v.1.15,2013-04-25 04:01:00,
2013-04-24 23:02:00,43.6,29.8,29.99,SSW,199,7.0,9.0,58,0.00,,,0.00,0,Wunderground v.1.15,2013-04-25 04:02:00,
2013-04-24 23:04:00,43.6,29.8,29.99,SSW,213,7.0,9.0,58,0.00,,,0.00,0,Wunderground v.1.15,2013-04-25 04:04:00,
2013-04-24 23:05:00,43.6,29.8,29.99,SSW,198,7.0,9.0,58,0.00,,,0.00,0,Wunderground v.1.15,2013-04-25 04:05:00,
2013-04-24 23:09:00,43.5,29.7,29.99,SW,214,7.0,9.0,58,0.00,,,0.00,0,Wunderground v.1.15,2013-04-25 04:09:00,
2013-04-24 23:14:00,43.5,29.7,29.99,SSW,199,7.0,11.0,58,0.00,,,0.00,0,Wunderground v.1.15,2013-04-25 04:14:00,
2013-04-24 23:20:00,43.6,29.8,29.99,SSW,205,7.0,7.0,58,0.00,,,0.00,0,Wunderground v.1.15,2013-04-25 04:20:00,
2013-04-24 23:26:00,43.5,30.1,29.99,SSW,196,7.0,8.0,59,0.00,,,0.00,0,Wunderground v.1.15,2013-04-25 04:26:00,
2013-04-24 23:31:00,43.4,30.0,29.98,SW,215,7.0,7.0,59,0.00,,,0.00,0,Wunderground v.1.15,2013-04-25 04:31:00,
2013-04-24 23:37:00,43.3,29.9,29.98,SW,222,7.0,10.0,59,0.00,,,0.00,0,Wunderground v.1.15,2013-04-25 04:37:00,
2013-04-24 23:44:00,43.3,30.3,29.98,SSW,213,8.0,13.0,60,0.00,,,0.00,0,Wunderground v.1.15,2013-04-25 04:44:00,
2013-04-24 23:49:00,43.1,30.1,29.98,SSW,209,8.0,13.0,60,0.00,,,0.00,0,Wunderground v.1.15,2013-04-25 04:49:00,
2013-04-24 23:55:00,43.1,30.6,29.98,SSW,211,8.0,8.0,61,0.00,,,0.00,0,Wunderground v.1.15,2013-04-25 04:55:00,